Flag for Austria Past Weather in Saalfelden am Steinernen Meer, Salzburg, Austria — Yesterday and Last 2 Weeks

Now
66 °F

Passing clouds.


Feels Like: 66 °F
Forecast: 54 / 64 °F
Wind: 7 mph from Southeast

Location: Salzburg-Flughafen

Current Time: Jul 2, 2016 at 6:03:57 AM

Latest Report: Jul 2, 2016 at 5:20 AM


Visibility: N/A

Pressure: 30.01 "Hg (27.53 "Hg at 738m altitude)

Humidity: 78%

Dew Point: 59 °F

Location of Saalfelden am Steinernen MeerLocation

Past Weather in Saalfelden am Steinernen Meer — Graph

°F

Saalfelden am Steinernen Meer Temperature Yesterday

Maximum temperature yesterday: 81 °F (at 3:20 PM)
Minimum temperature yesterday: 63 °F (at 2:20 AM)
Average temperature yesterday: 72 °F

High & Low Weather Summary for the Past Weeks

 TemperatureHumidityPressure
High88 °F (Jun 23, 4:20 PM)100% (Jun 19, 8:20 AM)30.30 "Hg (Jun 19, 8:20 AM)
Low52 °F (Jun 17, 7:20 AM)33% (Jun 24, 7:20 PM)29.62 "Hg (Jun 17, 4:20 AM)
Average66 °F73%30.09 "Hg
* Reported Jun 17 4:20 AM — Jul 2 4:50 AM, Saalfelden am Steinernen Meer, Weather by CustomWeather, © 2016

Note: Actual official high and low records may vary slightly from our data, if they occured in-between our weather recording intervals... More about our weather records

Advertising

Saalfelden am Steinernen Meer Weather History for the Previous 24 Hours

Scroll right to see more
 ConditionsComfort  
Time TempWeatherWind HumidityBarometerVisibility
4:50 AM
Sat, Jul 2
66 °FPassing clouds.7 mph78%30.01 "HgN/A
4:20 AM66 °FPassing clouds.6 mph78%30.01 "HgN/A
3:50 AM66 °FPassing clouds.6 mph78%30.01 "HgN/A
3:20 AM64 °FPassing clouds.7 mph88%30.04 "HgN/A
2:50 AM64 °FPassing clouds.2 mph88%30.04 "HgN/A
2:20 AM66 °FPassing clouds.3 mph83%30.04 "HgN/A
1:50 AM66 °FPassing clouds.5 mph83%30.04 "HgN/A
1:20 AM66 °FPassing clouds.5 mph78%30.04 "HgN/A
12:50 AM64 °FPassing clouds.7 mph88%30.04 "HgN/A
12:20 AM66 °FPassing clouds.3 mph83%30.04 "HgN/A
11:50 PM
Fri, Jul 1
68 °FPassing clouds.5 mph78%30.04 "HgN/A
11:20 PM68 °FPassing clouds.5 mph78%30.04 "HgN/A
10:50 PM68 °FPassing clouds.5 mph78%30.04 "HgN/A
10:20 PM70 °FPassing clouds.3 mph78%30.04 "HgN/A
9:50 PM72 °FScattered clouds.3 mph73%30.04 "HgN/A
9:20 PM73 °FPassing clouds.5 mph65%30.04 "HgN/A
8:50 PM75 °FPassing clouds.6 mph57%30.04 "HgN/A
8:20 PM77 °FPassing clouds.7 mph57%30.01 "HgN/A
7:50 PM79 °FPassing clouds.7 mph51%30.01 "HgN/A
7:20 PM81 °FPassing clouds.8 mph48%30.01 "HgN/A
6:50 PM81 °FPassing clouds.8 mph45%30.01 "HgN/A
6:20 PM81 °FPassing clouds.9 mph45%30.01 "HgN/A
5:50 PM81 °FPassing clouds.7 mph48%30.04 "HgN/A
5:20 PM81 °FPassing clouds.9 mph42%30.04 "HgN/A
4:50 PM81 °FPassing clouds.8 mph45%30.04 "HgN/A
4:20 PM81 °FPassing clouds.7 mph45%30.04 "HgN/A
3:50 PM81 °FPassing clouds.7 mph48%30.04 "HgN/A
3:20 PM81 °FPassing clouds.7 mph51%30.04 "HgN/A
2:50 PM79 °FPassing clouds.3 mph45%30.07 "HgN/A
2:20 PM79 °FPassing clouds.2 mph48%30.07 "HgN/A
1:50 PM79 °FPassing clouds.5 mph48%30.07 "HgN/A
1:20 PM79 °FPassing clouds.5 mph54%30.09 "HgN/A
12:50 PM77 °FPassing clouds.7 mph57%30.09 "HgN/A
12:20 PM77 °FPassing clouds.5 mph54%30.09 "HgN/A
11:50 AM77 °FPassing clouds.5 mph54%30.09 "HgN/A
11:20 AM75 °FPassing clouds.6 mph57%30.09 "HgN/A
10:50 AM75 °FPassing clouds.5 mph57%30.09 "HgN/A
10:20 AM73 °FPassing clouds.3 mph65%30.09 "HgN/A
9:50 AM73 °FPassing clouds.1 mph57%30.12 "HgN/A
9:20 AM72 °FPassing clouds.3 mph65%30.12 "HgN/A
8:50 AM70 °FPassing clouds.5 mph69%30.12 "HgN/A
8:20 AM68 °FPassing clouds.5 mph78%30.12 "HgN/A
7:50 AM66 °FSunny.7 mph78%30.09 "Hg10 mi
7:20 AM64 °FScattered clouds.6 mph83%30.09 "HgN/A
6:50 AM63 °FPartly sunny.7 mph88%30.09 "HgN/A
6:20 AM63 °FPartly sunny.7 mph88%30.09 "HgN/A
Weather by CustomWeather, © 2016

See weather overviewHow to use our weather pages